Rijeka, Croatia

2:33 AM CEST on August 16, 2018 (GMT +0200)
Rijeka

Weather History for LDRI - May, 2018

Change the Weather History Date:

Wednesday, May 16, 2018

  Actual Average Record
Temperature  
Mean Temperature 58 °F -  
Max Temperature 64 °F - - ()
Min Temperature 51 °F - - ()
Degree Days  
Heating Degree Days 8    
Growing Degree Days 8 (Base 50)    
Moisture  
Dew Point 52 °F    
Average Humidity 81    
Maximum Humidity 94    
Minimum Humidity 64    
Precipitation  
Precipitation 0.00 in - - ()
Sea Level Pressure  
Sea Level Pressure 29.94 in    
Wind  
Wind Speed 5 mph ()    
Max Wind Speed 12 mph    
Max Gust Speed -    
Visibility 6.2 miles    
Events Rain , Thunderstorm    
T = Trace of Precipitation, MM = Missing Value Source: Averaged Metar Reports

Daily Weather History Graph

Daily Weather History Graph

Search for Another Location

Airport or City:

Astronomy

May. 16, 2018 Rise Set
Actual Time 5:31 AM CEST 8:25 PM CEST
Civil Twilight 4:56 AM CEST 9:00 PM CEST
Nautical Twilight 4:12 AM CEST 9:44 PM CEST
Astronomical Twilight 3:20 AM CEST 10:36 PM CEST
Moon 6:31 AM CEST 9:33 PM CEST
Length of Visible Light 16h 03m
Length of Day
14h 54m
New Moon, 1% of the Moon is Illuminated
May 16
New Moon
May 22
First Quarter
May 29
Full
Jun 6
Last Quarter
Jun 13
New

Hourly Weather History & Observations

Time (CEST) Temp. Dew Point Humidity Pressure Visibility Wind Dir Wind Speed Gust Speed Precip Events Conditions
12:00 AM 55.4 °F 51.8 °F 88% 29.89 in - Calm Calm - N/A   Clear
12:30 AM 53.6 °F 51.8 °F 94% 29.89 in - ESE 3.5 mph - N/A   Clear
1:00 AM 53.6 °F 50.0 °F 88% 29.89 in - ESE 4.6 mph - N/A   Clear
1:30 AM 53.6 °F 50.0 °F 88% 29.89 in - East 4.6 mph - N/A   Clear
2:00 AM 53.6 °F 50.0 °F 88% 29.89 in - East 3.5 mph - N/A   Clear
2:30 AM 53.6 °F 50.0 °F 88% 29.89 in - Calm Calm - N/A   Clear
3:00 AM 51.8 °F 50.0 °F 94% 29.89 in - Calm Calm - N/A   Clear
4:00 AM 51.8 °F 50.0 °F 94% 29.89 in 6.2 mi SE 3.5 mph - N/A   Partly Cloudy
5:00 AM 53.6 °F 50.0 °F 88% 29.89 in 6.2 mi East 4.6 mph - N/A   Scattered Clouds
5:30 AM 51.8 °F 50.0 °F 94% 29.89 in 6.2 mi ESE 3.5 mph - N/A   Scattered Clouds
6:00 AM 51.8 °F 50.0 °F 94% 29.89 in 6.2 mi Variable 2.3 mph - N/A   Partly Cloudy
6:30 AM 53.6 °F 51.8 °F 94% 29.89 in 6.2 mi East 3.5 mph - N/A   Scattered Clouds
7:00 AM 53.6 °F 51.8 °F 94% 29.89 in 6.2 mi SE 5.8 mph - N/A   Partly Cloudy
7:30 AM 55.4 °F 51.8 °F 88% 29.89 in 6.2 mi ESE 5.8 mph - N/A   Scattered Clouds
8:00 AM 57.2 °F 51.8 °F 82% 29.92 in 6.2 mi ESE 5.8 mph - N/A   Mostly Cloudy
8:30 AM 59.0 °F 51.8 °F 77% 29.92 in 6.2 mi ESE 4.6 mph - N/A   Mostly Cloudy
9:00 AM 59.0 °F 51.8 °F 77% 29.92 in 6.2 mi East 4.6 mph - N/A   Mostly Cloudy
9:30 AM 59.0 °F 51.8 °F 77% 29.92 in 5.0 mi SE 6.9 mph - N/A   Mostly Cloudy
10:00 AM 59.0 °F 51.8 °F 77% 29.95 in 6.2 mi SE 6.9 mph - N/A   Scattered Clouds
10:30 AM 60.8 °F 51.8 °F 72% 29.95 in 6.2 mi SE 8.1 mph - N/A   Scattered Clouds
11:00 AM 60.8 °F 53.6 °F 77% 29.95 in 6.2 mi ESE 9.2 mph - N/A   Partly Cloudy
11:30 AM 62.6 °F 53.6 °F 72% 29.95 in 6.2 mi ESE 10.4 mph - N/A   Scattered Clouds
12:00 PM 62.6 °F 51.8 °F 68% 29.95 in 6.2 mi ESE 11.5 mph - N/A   Scattered Clouds
12:30 PM 62.6 °F 51.8 °F 68% 29.95 in 6.2 mi SE 10.4 mph - N/A   Partly Cloudy
1:00 PM 64.4 °F 51.8 °F 64% 29.95 in 6.2 mi ESE 10.4 mph - N/A   Partly Cloudy
1:30 PM 62.6 °F 51.8 °F 68% 29.98 in 6.2 mi SE 9.2 mph - N/A   Mostly Cloudy
2:00 PM 60.8 °F 50.0 °F 68% 29.98 in 6.2 mi SSE 8.1 mph - N/A   Mostly Cloudy
2:30 PM 59.0 °F 55.4 °F 88% 29.98 in 6.2 mi ESE 8.1 mph - N/A Rain Light Rain
3:00 PM 59.0 °F 55.4 °F 88% 29.98 in 6.2 mi ESE 9.2 mph - N/A   Scattered Clouds
3:30 PM 60.8 °F 53.6 °F 77% 29.95 in 6.2 mi ESE 8.1 mph - N/A   Mostly Cloudy
4:00 PM 60.8 °F 53.6 °F 77% 29.95 in 6.2 mi SSE 8.1 mph - N/A   Mostly Cloudy
4:30 PM 60.8 °F 53.6 °F 77% 29.95 in 6.2 mi SE 5.8 mph - N/A   Mostly Cloudy
5:00 PM 60.8 °F 51.8 °F 72% 29.95 in 6.2 mi ESE 8.1 mph - N/A   Mostly Cloudy
5:30 PM 64.4 °F 53.6 °F 68% 29.95 in 6.2 mi SSE 8.1 mph - N/A   Mostly Cloudy
6:00 PM 62.6 °F 51.8 °F 68% 29.95 in 6.2 mi NNE 9.2 mph - N/A   Mostly Cloudy
6:30 PM 62.6 °F 51.8 °F 68% 29.95 in 6.2 mi SE 6.9 mph - N/A   Mostly Cloudy
7:30 PM 59.0 °F 53.6 °F 82% 29.95 in 6.2 mi SE 4.6 mph - N/A Rain , Thunderstorm Light Rain
8:00 PM 60.8 °F 53.6 °F 77% 29.95 in 6.2 mi SE 5.8 mph - N/A   Scattered Clouds
8:30 PM 60.8 °F 53.6 °F 77% 29.98 in 6.2 mi ESE 4.6 mph - N/A   Mostly Cloudy
9:00 PM 59.0 °F 53.6 °F 82% 29.95 in 6.2 mi SE 5.8 mph - N/A   Mostly Cloudy
9:30 PM 59.0 °F 53.6 °F 82% 29.98 in 6.2 mi SE 4.6 mph - N/A Rain Light Rain
10:00 PM 59.0 °F 53.6 °F 82% 29.98 in 6.2 mi SE 4.6 mph - N/A   Mostly Cloudy
10:30 PM 59.0 °F 53.6 °F 82% 29.98 in 6.2 mi ESE 4.6 mph - N/A   Mostly Cloudy
11:00 PM 59.0 °F 53.6 °F 82% 29.98 in 6.2 mi ESE 4.6 mph - N/A   Scattered Clouds
11:30 PM 59.0 °F 51.8 °F 77% 29.98 in 6.2 mi ESE 6.9 mph - N/A   Scattered Clouds